Location: Newark
(47.5833°N, 8.1500°E)
Time: 08:47:41
(UTC+00:00)

Vanguard 1 - Pass Details

Date: 31 October 2020
Orbit: 650 x 3833 km, 34.2° (Epoch: 29 November)

Event Time Altitude Azimuth Distance (km) Brightness Sun altitude
Rises 15:03:08 0° 267° (W) 7,890 15.8 9.3°
Reaches altitude 10° 15:08:42 10° 263° (W) 6,936 15.8 8.6°
Maximum altitude 15:30:18 50° 198° (SSW) 3,923 13.6 5.4°
Drops below altitude 10° 15:45:25 10° 129° (SE) 5,018 13.4 3.1°
Sets 15:48:42 0° 124° (SE) 5,664 13.6 2.6°
